DLH2RW EDDF-LKPR

Flight info

Callsign DLH2RW
Flight time 0h 40m
Altitude 29000
Route SULUS7S/18 SULUS Z650 TONSU Z35 ODOMO DCT LOMKI
Aircraft A319/M-SDE2E3FGIJ1LORWXYZ/HB1

Departure

Time 2026-05-07 13:59
Airport Frankfurt Main Airport (EDDF)

Arrival

Time 2026-05-07 14:39
Airport Václav Havel Airport Prague (LKPR)
Time Latitude Longitude Altitude Speed Heading
2026-05-07 13:38 50.03594 8.53730 337 ft 0 kts 159°
2026-05-07 13:39 50.03599 8.53727 337 ft 0 kts 159°
2026-05-07 13:56 50.03595 8.53729 341 ft 2 kts 159°
2026-05-07 13:56 50.03568 8.53745 336 ft 6 kts 159°
2026-05-07 13:56 50.03522 8.53738 340 ft 9 kts 232°
2026-05-07 13:56 50.03494 8.53634 339 ft 12 kts 249°
2026-05-07 13:57 50.03461 8.53494 336 ft 16 kts 250°
2026-05-07 13:57 50.03420 8.53321 338 ft 19 kts 249°
2026-05-07 13:57 50.03371 8.53118 334 ft 22 kts 250°
2026-05-07 13:57 50.03315 8.52884 332 ft 23 kts 250°
2026-05-07 13:58 50.03266 8.52680 334 ft 12 kts 249°
2026-05-07 13:58 50.03201 8.52595 336 ft 14 kts 185°
2026-05-07 13:58 50.03080 8.52597 336 ft 26 kts 179°
2026-05-07 13:58 50.02637 8.52601 336 ft 110 kts 180°
2026-05-07 13:59 50.01612 8.52608 437 ft 173 kts 181°
2026-05-07 13:59 50.00377 8.52639 1389 ft 178 kts 180°
2026-05-07 13:59 49.99111 8.52643 2363 ft 189 kts 181°
2026-05-07 13:59 49.97718 8.52732 3052 ft 213 kts 170°
2026-05-07 14:00 49.96337 8.53844 3747 ft 238 kts 135°
2026-05-07 14:00 49.95484 8.56063 4971 ft 244 kts 113°
2026-05-07 14:00 49.94746 8.58431 5642 ft 247 kts 115°
2026-05-07 14:00 49.94175 8.60965 5927 ft 258 kts 101°
2026-05-07 14:01 49.93960 8.63856 6132 ft 279 kts 94°
2026-05-07 14:01 49.93590 8.66890 7185 ft 288 kts 108°
2026-05-07 14:01 49.92747 8.69670 8631 ft 289 kts 122°
2026-05-07 14:01 49.91435 8.72058 9923 ft 295 kts 139°
2026-05-07 14:02 49.89759 8.74040 10784 ft 313 kts 142°
2026-05-07 14:02 49.88155 8.76539 11432 ft 337 kts 128°
2026-05-07 14:02 49.86894 8.79672 12381 ft 347 kts 117°
2026-05-07 14:02 49.85733 8.83005 13462 ft 354 kts 118°
2026-05-07 14:03 49.84533 8.86364 14494 ft 358 kts 119°
2026-05-07 14:03 49.83301 8.89758 15458 ft 363 kts 119°
2026-05-07 14:03 49.82065 8.93146 16415 ft 368 kts 120°
2026-05-07 14:03 49.80791 8.96629 17365 ft 374 kts 120°
2026-05-07 14:04 49.79495 9.00161 18314 ft 379 kts 120°
2026-05-07 14:04 49.78178 9.03746 19146 ft 384 kts 120°
2026-05-07 14:04 49.76862 9.07397 19780 ft 397 kts 117°
2026-05-07 14:04 49.75823 9.11474 19955 ft 420 kts 106°
2026-05-07 14:05 49.75115 9.15966 20278 ft 434 kts 103°
2026-05-07 14:05 49.74413 9.20487 20852 ft 440 kts 103°
2026-05-07 14:05 49.73678 9.25121 21224 ft 450 kts 104°
2026-05-07 14:05 49.72902 9.29901 21367 ft 463 kts 104°
2026-05-07 14:06 49.72101 9.34780 21696 ft 470 kts 104°
2026-05-07 14:06 49.71291 9.39682 22122 ft 473 kts 104°
2026-05-07 14:06 49.70472 9.44637 22569 ft 476 kts 104°
2026-05-07 14:06 49.69652 9.49616 23020 ft 479 kts 104°
2026-05-07 14:07 49.68838 9.54559 23451 ft 482 kts 104°
2026-05-07 14:07 49.68007 9.59602 23818 ft 484 kts 104°
2026-05-07 14:07 49.67462 9.64765 24167 ft 487 kts 93°
2026-05-07 14:07 49.67563 9.69981 24505 ft 488 kts 82°
2026-05-07 14:08 49.68302 9.75118 24845 ft 489 kts 73°
2026-05-07 14:08 49.69206 9.80133 25180 ft 491 kts 73°
2026-05-07 14:08 49.70118 9.85247 25529 ft 493 kts 73°
2026-05-07 14:08 49.71029 9.90363 25860 ft 495 kts 72°
2026-05-07 14:09 49.72304 9.95319 26210 ft 496 kts 62°
2026-05-07 14:09 49.74133 9.99846 26663 ft 495 kts 53°
2026-05-07 14:09 49.76133 10.04157 27305 ft 491 kts 53°
2026-05-07 14:09 49.78110 10.08418 27876 ft 480 kts 53°
2026-05-07 14:10 49.80025 10.12560 28299 ft 478 kts 54°
2026-05-07 14:10 49.81961 10.16751 28829 ft 478 kts 54°
2026-05-07 14:10 49.83894 10.20944 29013 ft 477 kts 54°
2026-05-07 14:11 49.87744 10.29332 29037 ft 476 kts 54°
2026-05-07 14:11 49.91569 10.37713 29036 ft 475 kts 54°
2026-05-07 14:12 49.95387 10.46100 29031 ft 476 kts 54°
2026-05-07 14:12 49.99190 10.54469 29036 ft 474 kts 54°
2026-05-07 14:13 50.02965 10.62794 29017 ft 469 kts 54°
2026-05-07 14:13 50.05644 10.71990 29003 ft 472 kts 77°
2026-05-07 14:13 50.05949 10.77084 29001 ft 474 kts 89°
2026-05-07 14:14 50.05524 10.82176 28997 ft 476 kts 102°
2026-05-07 14:14 50.03505 10.92005 29001 ft 477 kts 107°
2026-05-07 14:15 50.01423 11.01776 29006 ft 477 kts 107°
2026-05-07 14:15 49.99325 11.11585 29018 ft 477 kts 107°
2026-05-07 14:16 49.97308 11.21379 29008 ft 474 kts 101°
2026-05-07 14:16 49.96705 11.31545 29002 ft 472 kts 91°
2026-05-07 14:17 49.96398 11.41651 28994 ft 472 kts 91°
2026-05-07 14:17 49.96057 11.51832 28997 ft 472 kts 91°
2026-05-07 14:18 49.95708 11.62031 28988 ft 473 kts 91°
2026-05-07 14:18 49.95358 11.72206 29010 ft 465 kts 91°
2026-05-07 14:19 49.95010 11.82143 29012 ft 463 kts 91°
2026-05-07 14:19 49.94654 11.92141 29012 ft 466 kts 92°
2026-05-07 14:20 49.94364 12.02354 29007 ft 474 kts 91°
2026-05-07 14:20 49.94185 12.12611 29005 ft 476 kts 90°
2026-05-07 14:21 49.93999 12.22843 29003 ft 476 kts 90°
2026-05-07 14:21 49.93775 12.33024 29000 ft 455 kts 91°
2026-05-07 14:21 49.93717 12.37830 29008 ft 439 kts 90°
2026-05-07 14:22 49.93794 12.42544 28989 ft 437 kts 88°
2026-05-07 14:22 49.93961 12.47264 28725 ft 438 kts 86°
2026-05-07 14:22 49.94164 12.51942 28443 ft 437 kts 86°
2026-05-07 14:22 49.94368 12.56640 28167 ft 438 kts 86°
2026-05-07 14:23 49.94551 12.61367 27891 ft 439 kts 87°
2026-05-07 14:23 49.94706 12.66087 27621 ft 438 kts 87°
2026-05-07 14:23 49.94840 12.70831 27354 ft 439 kts 88°
2026-05-07 14:23 49.94962 12.75567 27086 ft 434 kts 88°
2026-05-07 14:24 49.95078 12.80212 26827 ft 428 kts 88°
2026-05-07 14:24 49.95194 12.84827 26556 ft 426 kts 89°
2026-05-07 14:24 49.95308 12.89375 26300 ft 428 kts 89°
2026-05-07 14:24 49.95427 12.93996 25838 ft 425 kts 89°
2026-05-07 14:25 49.95547 12.98569 25036 ft 421 kts 90°
2026-05-07 14:25 49.95664 13.03087 24283 ft 416 kts 90°
2026-05-07 14:25 49.95780 13.07555 23548 ft 412 kts 89°
2026-05-07 14:25 49.95890 13.11983 22798 ft 407 kts 89°
2026-05-07 14:26 49.95996 13.16342 22166 ft 401 kts 90°
2026-05-07 14:26 49.96098 13.20598 21564 ft 396 kts 90°
2026-05-07 14:26 49.96201 13.24908 20974 ft 392 kts 91°
2026-05-07 14:26 49.96296 13.29055 20398 ft 387 kts 89°
2026-05-07 14:27 49.96389 13.33225 19794 ft 383 kts 90°
2026-05-07 14:27 49.96479 13.37356 19189 ft 379 kts 90°
2026-05-07 14:27 49.96569 13.41438 18568 ft 376 kts 91°
2026-05-07 14:27 49.96656 13.45457 17895 ft 375 kts 90°
2026-05-07 14:28 49.96743 13.49505 17177 ft 374 kts 91°
2026-05-07 14:28 49.96828 13.53540 16513 ft 372 kts 90°
2026-05-07 14:28 49.96912 13.57543 15873 ft 369 kts 91°
2026-05-07 14:28 49.96996 13.61525 15233 ft 367 kts 91°
2026-05-07 14:29 49.97078 13.65480 14614 ft 364 kts 90°
2026-05-07 14:29 49.97155 13.69399 14004 ft 361 kts 91°
2026-05-07 14:29 49.97228 13.73301 13349 ft 359 kts 91°
2026-05-07 14:29 49.97298 13.77105 12687 ft 356 kts 91°
2026-05-07 14:30 49.97369 13.80946 12054 ft 354 kts 91°
2026-05-07 14:30 49.97439 13.84771 11532 ft 353 kts 91°
2026-05-07 14:30 49.97507 13.88575 11036 ft 351 kts 91°
2026-05-07 14:30 49.97574 13.92345 10442 ft 346 kts 91°
2026-05-07 14:31 49.97639 13.96071 9822 ft 342 kts 90°
2026-05-07 14:31 49.97702 13.99756 9200 ft 337 kts 90°
2026-05-07 14:31 49.97762 14.03371 8626 ft 332 kts 90°
2026-05-07 14:31 49.97820 14.06901 8059 ft 328 kts 91°
2026-05-07 14:32 49.97878 14.10427 7502 ft 325 kts 90°
2026-05-07 14:32 49.97934 14.13905 7001 ft 319 kts 90°
2026-05-07 14:32 49.97987 14.17322 6559 ft 313 kts 90°
2026-05-07 14:32 49.98036 14.20682 6101 ft 307 kts 90°
2026-05-07 14:33 49.98083 14.23969 5596 ft 302 kts 90°
2026-05-07 14:33 49.98129 14.27192 5366 ft 288 kts 90°
2026-05-07 14:33 49.98171 14.30245 5107 ft 277 kts 90°
2026-05-07 14:33 49.98211 14.33213 4658 ft 274 kts 89°
2026-05-07 14:34 49.98238 14.35173 4313 ft 273 kts 90°
2026-05-07 14:34 49.98280 14.38097 4035 ft 264 kts 89°
2026-05-07 14:34 49.98693 14.41656 3841 ft 247 kts 57°
2026-05-07 14:34 49.99930 14.43271 3687 ft 226 kts 15°
2026-05-07 14:35 50.00940 14.43408 3647 ft 208 kts 345°
2026-05-07 14:35 50.02070 14.42347 3534 ft 186 kts 309°
2026-05-07 14:35 50.02875 14.40835 3296 ft 175 kts 304°
2026-05-07 14:35 50.03562 14.39463 3090 ft 144 kts 302°
2026-05-07 14:36 50.04121 14.38327 2906 ft 123 kts 302°
2026-05-07 14:36 50.04611 14.37320 2763 ft 113 kts 302°
2026-05-07 14:36 50.05079 14.36356 2608 ft 111 kts 302°
2026-05-07 14:36 50.05540 14.35405 2463 ft 110 kts 303°
2026-05-07 14:37 50.05995 14.34466 2313 ft 109 kts 302°
2026-05-07 14:37 50.06906 14.32590 2010 ft 107 kts 302°
2026-05-07 14:37 50.07362 14.31654 1843 ft 108 kts 302°
2026-05-07 14:38 50.07816 14.30718 1694 ft 109 kts 300°
2026-05-07 14:38 50.08279 14.29759 1557 ft 112 kts 300°
2026-05-07 14:38 50.08750 14.28799 1403 ft 109 kts 299°
2026-05-07 14:38 50.09194 14.27862 1261 ft 106 kts 297°
2026-05-07 14:39 50.09585 14.27049 1214 ft 67 kts 308°
2026-05-07 14:39 50.09810 14.26584 1206 ft 49 kts 307°
2026-05-07 14:39 50.10008 14.26171 1190 ft 47 kts 307°
2026-05-07 14:39 50.10155 14.25876 1185 ft 28 kts 307°
2026-05-07 14:40 50.10259 14.25716 1186 ft 14 kts 328°
2026-05-07 14:40 50.10354 14.25662 1184 ft 4 kts 350°
2026-05-07 14:40 50.10355 14.25662 1184 ft 0 kts 350°
2026-05-07 14:41 50.10360 14.25661 1184 ft 3 kts 351°
2026-05-07 14:41 50.10409 14.25657 1184 ft 9 kts
2026-05-07 14:41 50.10486 14.25679 1184 ft 14 kts 16°
2026-05-07 14:42 50.10580 14.25760 1183 ft 17 kts 34°
2026-05-07 14:42 50.10686 14.25874 1179 ft 21 kts 35°
2026-05-07 14:42 50.10809 14.26007 1173 ft 21 kts 34°
2026-05-07 14:42 50.10879 14.26138 1171 ft 15 kts 97°
2026-05-07 14:43 50.10826 14.26283 1171 ft 14 kts 115°
2026-05-07 14:43 50.10778 14.26406 1175 ft 13 kts 124°
2026-05-07 14:43 50.10739 14.26470 1177 ft 6 kts 166°
2026-05-07 14:43 50.10701 14.26445 1177 ft 6 kts 220°
2026-05-07 14:44 50.10691 14.26433 1179 ft 0 kts 218°
2026-05-07 14:44 50.10688 14.26431 1180 ft 1 kts 211°
2026-05-07 14:44 50.10683 14.26425 1179 ft 0 kts 213°
2026-05-07 14:45 50.10682 14.26425 1179 ft 0 kts 214°